Vertical_Velocity
-2 -1 -1 -1 -1 -1 -1 -1 -0 -0 0 -1 -1 -0 -1 -0 -3 -4 -4 -3 -3 -1 1 3 6 5 1 -5 5 -0 5 -1 -11 6 7 -4 40 19 14 -12 -3 10 -5 1 -4
-0 -1 -1 -1 -0 -0 -1 -1 -1 -2 -1 -1 -0 -0 -1 0 -3 -0 -2 2 -1 -0 1 3 -2 -9 3 2 10 12 5 8 8 10 13 -10 -1 -15 4 -8 -6 6 2 -0 -2
-0 -0 0 -2 -1 -2 -0 -0 -1 -1 -1 -1 -1 -1 -1 -3 -1 0 2 -0 -3 -0 -1 -2 -8 -3 -4 25 -5 1 -54 5 -20 -15 18 13 4 1 -4 -38 -10 12 -4 1 -1
-3 1 -0 -1 -1 -1 -1 -1 -1 -2 -2 -3 -1 0 -2 -2 -4 -5 -0 -1 -2 -1 -1 -3 -0 -6 5 33 -7 -35 8 -16 -16 4 10 52 -11 -22 -8 -2 4 8 3 1 3
-0 -1 -2 -0 -1 -1 -2 -1 -2 -0 -1 -2 -1 -3 -0 -4 -5 1 -2 -2 -2 -2 -1 -6 -2 -2 11 11 37 10 11 -15 37 -17 -7 37 24 -16 -40 -76 -16 16 -5 -0 -3
-1 -1 -2 -1 -2 -0 1 -0 0 -1 -2 -1 -1 -3 -4 -2 -1 -3 -0 -1 0 -1 -2 -4 0 1 -4 15 29 8 -0 -11 -5 26 24 2 -20 5 0 -36 -8 3 10 -0 -4
-1 -1 0 0 -0 -2 -2 -2 -2 -1 -1 -0 -1 -2 -6 -0 -1 -9 1 -1 -1 1 -4 -1 3 -3 2 -12 18 37 -10 -7 8 -14 2 5 -9 7 10 -24 -10 -7 18 2 -4
-2 -2 -2 -2 -1 -2 -3 -2 -2 -2 -2 -2 -2 -6 -10 1 -5 -6 -4 -1 -0 -1 -3 6 -0 7 -0 2 -13 15 -6 3 -3 -3 -7 15 -6 10 -3 3 12 -7 20 16 5
-2 -1 -1 -2 -1 -1 -1 -1 -2 -2 -2 -2 -5 -3 3 -4 -5 6 1 -2 -1 -1 -1 1 7 -11 -8 -5 -3 0 -1 13 15 0 -1 7 12 17 11 -5 -23 -75 -34 6 6
-2 -2 -2 -1 -1 0 -1 0 1 -1 -1 -1 -3 -2 -2 4 1 -2 1 1 -4 -0 -1 -2 -4 -4 -8 7 -13 -6 -1 5 -26 -18 3 -8 -4 2 34 -9 0 -6 -14 -12 12
-2 -2 -1 -1 -1 -0 2 0 -2 -2 -3 1 -2 -0 -8 8 -6 -2 2 -0 1 -0 3 -5 6 -8 -17 -4 0 11 19 -16 -16 -16 15 3 -4 -1 14 15 4 -9 1 11 1
-2 -1 -1 -1 0 0 -0 -5 -4 -6 -9 -1 -3 -1 -9 -1 -2 -1 -2 0 -0 -6 -1 5 2 -17 -5 3 9 5 5 13 8 -3 10 22 -2 0 5 7 -9 11 -78 -6 1
-1 -1 -1 -0 -0 -0 0 -4 1 -2 -6 1 -1 -2 -3 -3 -4 -5 1 3 -1 -2 -3 7 -25 4 2 -9 -5 -2 6 -2 27 27 26 0 -15 -3 -13 40 8 19 38 -29 -1
-1 -0 -1 0 -0 -1 -3 2 -2 -1 -6 -8 -8 -6 -4 -1 -16 0 1 -1 -2 -4 -4 -2 -3 7 10 9 18 -11 -4 6 17 20 -6 2 -18 2 5 8 38 14 12 -13 6
-1 -0 -1 0 0 -2 7 -2 -0 1 -1 3 -2 2 -1 -14 5 1 -1 21 -7 -6 15 -36 -8 -4 4 -4 36 -1 4 12 7 9 17 1 11 -10 8 5 -8 17 7 9 3
-0 -0 -0 -1 -2 -3 -1 2 0 -1 -11 11 -9 -6 -1 -6 -3 18 -9 2 -0 -4 8 -8 5 13 -8 -3 7 5 -7 -3 1 13 0 -19 20 -2 -5 -7 -38 -36 -37 -4 1
-2 -1 -2 -2 1 4 2 -2 -5 0 35 14 -14 -2 -4 2 -6 2 10 2 -5 10 -4 -2 -9 -6 8 5 21 7 2 -9 -9 -1 -11 6 17 11 22 3 -13 18 16 -8 -5
-1 -1 -1 -1 -1 2 -3 -1 0 3 25 44 27 4 -10 -11 -9 -12 19 -7 2 -4 16 8 -6 -12 -19 -3 8 0 11 4 -4 -1 -13 8 5 -6 -13 4 20 11 21 3 -16
-2 -2 -1 1 0 -1 -1 -4 2 11 4 -4 12 -2 15 16 33 11 -8 -0 -11 -7 -6 3 -13 23 26 -5 10 -36 1 -13 16 3 13 2 18 26 -53 -7 -19 3 33 -7 -7
-2 -3 10 -2 1 1 -1 -6 -20 12 -2 -18 -0 5 5 12 28 8 13 -12 -13 4 8 -26 -7 9 -27 41 14 -8 -6 0 5 -2 -2 -6 -2 -8 -10 -3 -43 4 26 5 5
-2 -4 -6 -8 -2 -0 -5 -10 2 37 6 -7 -6 -4 -8 -0 19 9 -9 -22 13 -1 1 6 18 -59 5 11 -0 1 0 -3 11 15 -3 -2 -10 -11 -5 14 22 18 5 5 3
-2 -9 3 1 -3 -3 -5 -7 3 5 -13 -8 -4 -6 -3 -2 -3 3 18 12 37 32 19 -5 9 5 -14 -25 18 48 -5 -5 16 -20 -0 10 -29 -14 -2 0 11 11 77 21 3
-2 -5 0 1 -7 3 12 10 22 -9 -7 -7 8 9 -6 -5 -0 -1 -1 -5 8 18 -7 3 5 -8 -9 -7 -10 5 13 -1 -1 16 -16 12 -25 20 -3 4 -11 -31 -91 -1 -7
-1 6 6 -4 2 -4 -4 -14 -7 31 22 -16 -23 -1 -2 -5 0 -5 -15 -2 -15 9 13 2 -7 6 4 6 -7 -4 9 5 -1 17 -14 -6 9 -1 15 1 15 31 -72 14 3
2 8 -3 8 14 28 26 21 0 -2 -9 24 9 -2 -6 -15 -0 2 -9 -8 29 2 2 3 -6 4 -8 -2 3 6 6 17 17 -19 10 -32 8 27 11 -9 -27 -7 -0 9 4
-2 -4 -1 -1 -2 -7 -2 -18 -13 -18 2 -3 14 9 2 19 8 -13 21 11 2 -4 1 6 -11 -10 -7 -6 25 4 0 -1 5 17 10 -5 -3 -3 -13 6 28 -52 11 2 -4
-2 0 -4 4 0 -3 6 2 22 3 -7 7 9 7 2 -6 27 7 9 2 0 -9 -9 -10 -8 -27 -24 6 -6 -15 -11 -7 -2 -0 25 8 10 -17 -9 -2 -31 -16 81 21 25
Height
3146 3146 3146 3147 3147 3147 3148 3148 3148 3150 3151 3153 3154 3155 3157 3159 3161 3162 3163 3165 3166 3168 3170 3172 3173 3174 3176 3175 3177 3178 3177 3178 3174 3173 3176 3175 3175 3175 3175 3175 3174 3171 3168 3168 3169
3145 3145 3145 3146 3146 3147 3147 3147 3148 3149 3150 3151 3153 3154 3156 3158 3159 3162 3165 3165 3167 3168 3170 3171 3170 3170 3175 3177 3180 3181 3180 3178 3177 3176 3175 3174 3174 3175 3175 3175 3176 3173 3171 3170 3170
3144 3144 3144 3145 3145 3145 3146 3146 3147 3148 3149 3150 3152 3153 3155 3157 3159 3162 3164 3165 3167 3168 3170 3171 3171 3171 3173 3177 3180 3180 3181 3180 3175 3178 3174 3173 3169 3172 3176 3175 3179 3179 3175 3172 3171
3143 3143 3143 3144 3144 3144 3145 3145 3146 3147 3148 3149 3150 3152 3153 3156 3160 3158 3161 3164 3166 3168 3170 3171 3172 3169 3171 3175 3177 3179 3178 3178 3174 3175 3180 3177 3169 3172 3176 3178 3178 3180 3180 3177 3174
3142 3142 3143 3142 3142 3142 3143 3144 3145 3145 3146 3147 3149 3150 3152 3154 3156 3157 3160 3163 3165 3167 3169 3170 3170 3169 3170 3173 3176 3172 3176 3175 3176 3178 3178 3178 3173 3171 3175 3175 3178 3178 3181 3179 3176
3140 3140 3141 3142 3142 3141 3141 3142 3143 3144 3145 3146 3147 3148 3150 3154 3153 3155 3157 3161 3164 3166 3168 3170 3171 3170 3169 3170 3175 3175 3175 3175 3175 3176 3176 3172 3177 3174 3171 3174 3178 3180 3179 3178 3177
3138 3138 3139 3139 3140 3141 3141 3141 3142 3142 3143 3144 3145 3146 3148 3153 3152 3152 3156 3159 3162 3165 3167 3169 3171 3172 3170 3169 3169 3174 3174 3174 3172 3173 3175 3167 3172 3171 3171 3170 3176 3177 3179 3178 3176
3137 3137 3137 3138 3138 3139 3140 3140 3141 3141 3142 3142 3143 3144 3145 3149 3149 3152 3154 3157 3160 3162 3165 3168 3170 3171 3170 3169 3168 3169 3171 3170 3170 3171 3172 3172 3171 3169 3170 3171 3179 3179 3182 3179 3175
3135 3135 3135 3136 3137 3137 3137 3138 3139 3139 3140 3141 3142 3143 3145 3145 3147 3151 3153 3155 3158 3160 3163 3166 3169 3169 3169 3168 3168 3167 3168 3168 3168 3169 3168 3170 3170 3170 3168 3167 3168 3175 3173 3176 3176
3134 3134 3134 3135 3135 3136 3137 3137 3137 3137 3137 3138 3139 3144 3144 3145 3146 3148 3152 3154 3155 3159 3162 3165 3167 3168 3168 3167 3166 3165 3166 3166 3166 3166 3167 3166 3167 3170 3171 3165 3163 3168 3168 3170 3174
3132 3132 3133 3134 3134 3135 3137 3137 3138 3137 3135 3137 3138 3139 3140 3144 3143 3145 3149 3152 3154 3157 3159 3163 3166 3165 3166 3164 3164 3164 3165 3163 3164 3162 3163 3163 3163 3164 3165 3163 3163 3167 3170 3169 3171
3130 3131 3131 3132 3133 3133 3134 3134 3134 3134 3132 3133 3134 3136 3136 3140 3143 3144 3147 3150 3151 3153 3157 3162 3160 3163 3163 3163 3163 3162 3162 3162 3161 3160 3159 3160 3160 3160 3161 3160 3160 3162 3161 3160 3168
3129 3129 3130 3130 3131 3132 3133 3133 3134 3133 3131 3130 3130 3133 3136 3139 3140 3141 3145 3146 3148 3152 3154 3156 3158 3160 3161 3161 3160 3159 3159 3158 3159 3157 3158 3156 3156 3155 3157 3158 3157 3157 3160 3159 3161
3128 3128 3129 3129 3132 3130 3130 3132 3132 3133 3131 3127 3127 3129 3133 3137 3137 3138 3141 3146 3147 3149 3152 3153 3155 3156 3158 3159 3159 3158 3155 3155 3157 3155 3154 3156 3153 3153 3153 3157 3159 3158 3155 3154 3159
3127 3127 3127 3128 3129 3129 3132 3131 3133 3134 3133 3127 3128 3130 3131 3133 3135 3136 3139 3144 3144 3146 3152 3149 3152 3152 3152 3153 3156 3155 3154 3153 3153 3152 3151 3152 3152 3148 3149 3151 3153 3154 3153 3155 3159
3125 3126 3126 3127 3127 3128 3129 3132 3133 3136 3130 3128 3127 3129 3131 3132 3134 3137 3139 3142 3144 3145 3146 3146 3148 3150 3149 3150 3151 3153 3152 3150 3149 3149 3148 3146 3149 3146 3146 3147 3149 3151 3156 3155 3159
3124 3124 3125 3125 3127 3128 3129 3131 3135 3133 3128 3127 3126 3127 3128 3131 3133 3134 3138 3140 3142 3144 3143 3144 3143 3145 3147 3147 3148 3149 3150 3149 3150 3148 3145 3143 3144 3143 3143 3147 3147 3150 3153 3154 3157
3122 3122 3123 3124 3125 3127 3128 3132 3132 3128 3128 3126 3125 3125 3127 3129 3131 3132 3136 3137 3139 3140 3141 3140 3140 3140 3140 3142 3144 3145 3148 3148 3152 3148 3141 3140 3141 3146 3148 3147 3147 3148 3149 3150 3152
3122 3122 3122 3123 3124 3126 3128 3129 3127 3127 3127 3125 3124 3125 3127 3128 3130 3130 3130 3133 3134 3136 3138 3136 3133 3134 3136 3137 3139 3139 3141 3145 3143 3141 3139 3138 3139 3138 3144 3146 3144 3145 3145 3147 3147
3121 3121 3124 3123 3125 3126 3127 3126 3127 3128 3128 3127 3126 3125 3125 3126 3128 3127 3127 3127 3129 3131 3132 3132 3132 3127 3129 3131 3134 3135 3139 3141 3139 3142 3141 3134 3135 3132 3135 3136 3142 3138 3141 3143 3143
3121 3121 3123 3123 3125 3126 3125 3125 3126 3129 3126 3127 3127 3124 3123 3122 3121 3122 3122 3125 3126 3127 3127 3129 3130 3126 3127 3126 3129 3133 3134 3136 3138 3136 3135 3136 3130 3131 3132 3133 3137 3139 3139 3140 3141
3122 3122 3125 3125 3126 3125 3124 3126 3126 3126 3126 3126 3126 3124 3122 3121 3119 3119 3119 3121 3122 3123 3122 3123 3125 3123 3123 3122 3125 3129 3127 3130 3131 3131 3130 3130 3127 3129 3127 3123 3130 3136 3137 3138 3139
3123 3123 3124 3125 3124 3125 3126 3125 3126 3125 3125 3124 3124 3124 3123 3120 3121 3118 3116 3118 3119 3119 3117 3118 3119 3119 3119 3122 3119 3120 3123 3124 3127 3127 3125 3127 3125 3124 3124 3124 3129 3132 3131 3137 3139
3124 3125 3126 3124 3124 3125 3124 3124 3124 3123 3122 3121 3121 3120 3120 3120 3119 3118 3117 3117 3115 3115 3114 3115 3116 3119 3120 3119 3122 3118 3118 3120 3121 3121 3122 3120 3125 3124 3123 3124 3130 3131 3130 3134 3135
3123 3123 3122 3123 3123 3124 3124 3124 3121 3120 3120 3119 3119 3119 3119 3118 3117 3117 3117 3116 3116 3112 3111 3111 3112 3115 3113 3113 3114 3113 3112 3113 3114 3115 3116 3117 3118 3120 3122 3122 3126 3131 3130 3132 3132
3121 3120 3120 3120 3120 3120 3120 3120 3119 3118 3118 3117 3117 3117 3116 3116 3117 3116 3115 3112 3109 3108 3109 3109 3109 3109 3108 3108 3109 3106 3106 3106 3107 3110 3109 3112 3112 3115 3116 3120 3125 3128 3131 3130 3131
3118 3118 3116 3117 3116 3117 3116 3115 3115 3113 3112 3112 3113 3110 3110 3112 3111 3110 3109 3109 3107 3107 3108 3109 3109 3113 3106 3105 3102 3101 3101 3101 3102 3103 3107 3106 3109 3110 3111 3112 3118 3129 3130 3129 3129